[TLELIST] Archives

 

[list_settings.list_name] Current TLEs

July 8th 2013 PDT

HST 1 20580U 90037B 13188.11045980 .00001167 00000-0 70807-4 0 2762 2 20580 028.4698 142.2095 0002988 201.0752 255.4296 15.03738517 72698 ISS (ZARYA) 1 25544U 98067A 13189.44993196 .00007957 00000-0 14411-3 0 1429 2 25544 051.6501 002.9392 0008767 139.9932 258.9081 15.50600100838009 CXO 1 25867U 99040B 13191.72558082 -.00000461 00000-0 00000+0 0 9229 2 25867 075.5754 338.1549 8532037 277.2322 000.6593 00.37794951 10626 ____________________________________________________________________ These 2-Line ...Continue Reading

[list_settings.list_name] Current TLEs

July 7th 2013 PDT

HST 1 20580U 90037B 13188.11045980 .00001167 00000-0 70807-4 0 2762 2 20580 028.4698 142.2095 0002988 201.0752 255.4296 15.03738517 72698 ISS (ZARYA) 1 25544U 98067A 13188.36025963 .00006246 00000-0 11496-3 0 1359 2 25544 051.6499 008.3422 0008659 135.1746 296.9992 15.50574853837838 CXO 1 25867U 99040B 13189.08153623 -.00000596 00000-0 00000+0 0 9215 2 25867 075.5534 338.2926 8535219 277.2744 000.6752 00.37796118 10618 ____________________________________________________________________ These 2-Line ...Continue Reading

[list_settings.list_name] Current TLEs

July 5th 2013 PDT

HST 1 20580U 90037B 13185.12077150 .00000840 00000-0 47559-4 0 2747 2 20580 028.4696 161.8108 0003108 168.2859 271.8008 15.03731240 72245 ISS (ZARYA) 1 25544U 98067A 13186.35207176 .00004909 00000-0 92166-4 0 1240 2 25544 051.6499 018.2984 0008818 129.3921 245.6285 15.50544274837524 CXO 1 25867U 99040B 13186.43507805 -.00000810 00000-0 00000+0 0 9204 2 25867 075.5300 338.4672 8538202 277.2966 000.3790 00.37797638 10606 ____________________________________________________________________ These 2-Line ...Continue Reading

[list_settings.list_name] Current TLEs

July 4th 2013 PDT

HST 1 20580U 90037B 13185.12077150 .00000840 00000-0 47559-4 0 2747 2 20580 028.4696 161.8108 0003108 168.2859 271.8008 15.03731240 72245 ISS (ZARYA) 1 25544U 98067A 13185.25042824 .00005461 00000-0 10167-3 0 1171 2 25544 051.6498 023.7595 0008885 125.9334 215.7259 15.50534631837341 CXO 1 25867U 99040B 13183.82319027 .00000000 00000-0 10000-3 0 9206 2 25867 075.5154 338.5575 8539732 277.3274 004.7758 00.37808798 10598 ____________________________________________________________________ These 2-Line ...Continue Reading

[list_settings.list_name] Current TLEs

July 3rd 2013 PDT

HST 1 20580U 90037B 13183.40326755 .00000730 00000-0 39743-4 0 2737 2 20580 028.4693 173.0712 0003149 149.3986 334.7797 15.03727491 71992 ISS (ZARYA) 1 25544U 98067A 13184.28245370 .00006229 00000-0 11487-3 0 1106 2 25544 051.6499 028.5586 0008816 122.1607 212.7944 15.50525994837194 CXO 1 25867U 99040B 13186.43507805 -.00000810 00000-0 00000+0 0 9204 2 25867 075.5300 338.4672 8538202 277.2966 000.3790 00.37797638 10606 ____________________________________________________________________ These 2-Line ...Continue Reading

[list_settings.list_name] Current TLEs

July 1st 2013 PDT

HST 1 20580U 90037B 13182.13443183 .00000778 00000-0 43175-4 0 2726 2 20580 028.4691 181.3906 0003180 134.3564 307.5425 15.03724954 71793 ISS (ZARYA) 1 25544U 98067A 13182.41909722 .00008229 00000-0 14924-3 0 983 2 25544 051.6494 037.7953 0008913 115.3188 251.8036 15.50506623836918 CXO 1 25867U 99040B 13183.79034651 -.00001025 00000-0 00000+0 0 9191 2 25867 075.5191 338.6178 8540142 277.3267 000.3092 00.37798570 10597 ____________________________________________________________________ These 2-Line ...Continue Reading

[list_settings.list_name] Current TLEs

June 30th 2013 PDT

HST 1 20580U 90037B 13180.48393289 .00000635 00000-0 32970-4 0 2715 2 20580 028.4689 192.2119 0003238 116.7175 012.7397 15.03722882 71558 ISS (ZARYA) 1 25544U 98067A 13181.21118253 .00008349 00000-0 15140-3 0 918 2 25544 051.6498 043.7841 0008961 109.9893 350.3580 15.50486164836725 CXO 1 25867U 99040B 13183.79034651 -.00001025 00000-0 00000+0 0 9191 2 25867 075.5191 338.6178 8540142 277.3267 000.3092 00.37798570 10597 ____________________________________________________________________ These 2-Line ...Continue Reading

[list_settings.list_name] Current TLEs

June 29th 2013 PDT

HST 1 20580U 90037B 13179.42339926 .00000851 00000-0 48335-4 0 2706 2 20580 028.4688 199.1651 0003299 105.9749 031.0735 15.03720672 71395 ISS (ZARYA) 1 25544U 98067A 13180.24493139 .00006915 00000-0 12688-3 0 853 2 25544 051.6496 048.5715 0008876 107.3627 356.0757 15.50465376836572 CXO 1 25867U 99040B 13181.14502423 -.00001066 00000-0 00000+0 0 9189 2 25867 075.5136 338.7385 8544033 277.3663 000.1775 00.37800775 10586 ____________________________________________________________________ These 2-Line ...Continue Reading

[list_settings.list_name] Current TLEs

June 28th 2013 PDT

HST 1 20580U 90037B 13178.14488461 .00001121 00000-0 67609-4 0 2697 2 20580 028.4688 207.5478 0003348 092.3113 309.9967 15.03717898 71193 ISS (ZARYA) 1 25544U 98067A 13179.38424769 .00009660 00000-0 17405-3 0 794 2 25544 051.6518 052.8363 0008650 106.5332 229.7210 15.50462864836432 CXO 1 25867U 99040B 13181.14502423 -.00001066 00000-0 00000+0 0 9189 2 25867 075.5136 338.7385 8544033 277.3663 000.1775 00.37800775 10586 ____________________________________________________________________ These 2-Line ...Continue Reading

[list_settings.list_name] Current TLEs

June 27th 2013 PDT

HST 1 20580U 90037B 13178.14488461 .00001121 00000-0 67609-4 0 2697 2 20580 028.4688 207.5478 0003348 092.3113 309.9967 15.03717898 71193 ISS (ZARYA) 1 25544U 98067A 13178.24630647 .00013102 00000-0 23320-3 0 746 2 25544 051.6505 058.4783 0008862 101.7272 358.8031 15.50452917836265 CXO 1 25867U 99040B 13178.49950110 -.00000884 00000-0 00000+0 0 9179 2 25867 075.5004 338.8810 8549574 277.3877 000.0865 00.37801071 10574 ____________________________________________________________________ These 2-Line ...Continue Reading
  • This mailing list is a public mailing list - anyone may join or leave, at any time.
  • This mailing list is announce-only.

International Space Station (ISS) / Hubble Space Telescope (HST) / Chandra X-Ray Observatory Orbital Data via EMAIL

Privacy Policy:

Private list